Wind_Speed
5 5 5 5 6 6 7 8 8 9 9 9 9 10 11 11 12 12 12 13 12 12 12 12 12 12 12 13 13 12 12 12 12 12 13 12 12 13 13 14 14 14 15
6 5 6 6 7 7 8 8 9 9 9 9 10 10 11 12 12 13 13 13 13 13 13 13 13 12 13 13 13 14 13 13 13 13 13 14 14 13 13 14 15 15 16
8 6 6 7 7 7 8 8 9 9 9 9 10 11 11 12 13 13 14 14 14 14 14 14 14 14 14 14 14 14 15 15 15 15 15 15 15 15 15 15 16 16 17
7 7 7 7 8 8 8 9 9 10 10 11 11 12 12 13 14 14 15 15 15 15 15 15 15 15 15 15 15 16 16 17 16 16 16 16 16 17 17 16 16 17 18
8 8 9 9 9 9 10 9 10 11 11 12 12 13 13 14 15 15 16 16 16 16 16 16 16 16 17 17 17 17 17 18 18 17 17 18 18 17 17 18 18 18 19
9 9 10 11 11 11 11 11 11 12 12 13 13 14 14 15 15 16 16 17 17 17 17 17 17 17 18 18 18 18 19 18 18 18 18 19 19 19 19 18 19 19 20
10 11 12 12 12 13 13 13 13 13 14 14 14 15 15 15 16 16 16 17 17 18 18 18 18 19 19 19 19 19 19 19 19 19 19 20 20 21 21 21 21 21 21
11 13 13 14 14 14 14 14 14 14 15 15 15 16 16 16 16 16 17 17 18 18 18 19 19 19 19 19 19 20 20 20 21 21 21 20 21 21 21 22 22 22 22
13 13 14 14 14 14 15 14 15 15 15 16 16 16 17 17 17 18 18 18 19 19 19 19 19 19 20 20 20 20 21 21 21 21 21 21 21 21 22 22 22 23 23
14 14 14 14 14 14 15 15 14 15 16 16 17 18 18 19 19 19 19 20 20 20 20 20 20 20 20 21 21 21 21 22 22 22 22 22 22 22 22 22 23 23 23
15 15 15 15 15 16 16 16 16 16 17 18 18 19 20 20 20 20 20 20 21 21 21 21 21 21 21 21 22 23 23 22 23 23 23 23 23 23 23 24 24 24 23
14 15 15 16 17 17 17 16 17 17 18 19 20 20 21 22 22 21 21 21 21 22 21 22 22 22 23 23 24 24 24 23 23 24 23 23 23 23 24 24 25 25 24
14 15 16 17 18 18 18 18 17 18 19 20 20 21 21 22 22 22 22 22 23 23 23 23 23 24 24 25 25 25 25 25 24 24 24 24 24 24 25 25 25 25 26
14 15 16 17 19 19 19 19 20 20 20 20 21 22 22 22 23 23 23 23 23 23 23 24 25 25 25 26 26 25 25 24 25 25 24 25 24 25 25 26 26 26 26
15 16 17 18 19 20 20 21 21 21 21 22 22 23 23 23 24 24 23 23 24 24 24 25 25 25 26 26 26 26 26 25 25 26 25 25 24 24 26 26 26 27 27
16 17 17 18 19 19 20 20 20 21 22 22 23 24 23 24 24 24 24 24 25 26 26 26 26 27 27 27 27 26 26 26 26 25 26 26 26 26 26 26 26 26 27
17 18 18 19 20 19 20 20 20 21 22 23 24 24 23 23 24 24 25 25 24 25 26 26 27 27 27 27 27 27 27 27 26 26 26 26 27 27 26 26 26 26 27
19 19 19 20 20 20 20 20 21 21 22 23 24 24 23 23 24 24 24 25 25 25 26 26 26 27 27 27 27 27 27 27 27 26 26 26 26 27 26 26 27 26 27
20 20 19 19 21 21 22 22 23 24 24 24 24 24 23 23 24 24 25 25 25 26 26 26 26 26 27 28 27 26 26 26 27 26 26 26 26 26 26 27 28 27 26
21 20 19 19 21 22 23 24 25 25 24 24 24 24 24 24 24 24 24 24 25 26 26 26 27 27 27 27 26 26 26 26 26 26 26 26 26 26 26 27 27 27 27
20 19 19 19 20 21 23 24 25 25 25 24 24 24 24 24 25 25 25 26 26 26 26 27 28 28 27 27 26 26 26 25 25 26 26 26 25 26 27 27 27 27 27
20 19 20 19 21 22 23 24 25 25 25 25 24 24 25 25 25 25 25 26 26 27 27 28 28 27 26 26 26 26 25 25 25 26 26 26 26 26 27 28 27 26 27
19 20 21 20 21 23 24 24 24 25 25 25 25 25 25 25 26 27 26 26 27 27 27 27 26 26 25 25 26 26 25 24 25 26 26 27 27 26 26 26 26 26 27
20 21 21 21 21 21 22 22 23 24 24 24 25 25 25 26 26 26 26 26 26 26 26 25 25 24 24 25 26 26 26 25 25 25 26 26 27 26 26 27 27 27 27
21 22 21 21 21 21 21 22 24 24 23 24 24 25 25 25 25 25 25 25 25 24 24 24 24 24 23 24 25 25 26 26 27 27 26 26 27 27 27 27 27 28 28
21 21 21 22 22 22 22 23 23 23 23 23 24 23 24 24 25 24 24 23 23 23 23 22 22 22 22 24 24 25 26 26 27 28 27 27 27 27 27 27 27 28 29
Wind_Direction
328 333 330 325 318 309 308 309 307 307 305 302 302 301 300 299 297 296 295 294 292 288 285 282 281 280 277 276 274 273 271 270 270 270 267 265 264 262 261 255 251 250 249
319 325 319 314 311 310 311 312 310 306 303 304 302 299 298 298 296 294 292 291 289 286 283 282 281 279 278 278 276 274 273 272 271 271 268 265 264 264 264 261 257 255 254
310 316 315 308 304 305 311 311 308 307 302 301 300 297 296 296 295 293 290 289 288 285 283 281 281 279 278 277 277 277 276 274 274 273 270 266 265 264 264 261 258 258 256
311 313 309 304 303 302 303 305 304 304 303 300 300 300 296 296 294 293 290 288 287 284 282 281 281 280 279 278 278 279 278 277 276 276 273 270 267 266 264 261 258 257 257
303 306 304 301 300 301 299 299 299 301 301 301 297 299 299 296 297 295 291 287 285 282 281 280 281 280 279 280 279 279 279 277 277 277 274 272 270 269 266 264 262 259 257
303 301 298 298 297 294 294 294 295 297 297 297 294 294 297 297 296 295 291 287 284 283 281 281 281 281 279 279 279 279 278 278 278 277 275 273 271 268 266 265 264 262 260
298 299 298 299 296 293 293 292 291 292 290 291 292 293 294 295 295 294 293 290 287 284 283 282 282 281 280 280 279 280 279 278 277 275 274 273 271 269 266 265 264 263 261
295 297 296 296 296 292 292 290 290 289 287 288 290 292 291 292 292 293 294 291 288 287 286 286 284 282 280 279 279 279 279 278 278 276 274 273 272 270 268 265 264 263 261
292 293 295 297 296 293 292 293 292 290 288 288 289 289 290 291 292 292 292 290 288 287 285 285 283 282 280 280 281 280 280 279 278 275 274 272 271 269 266 264 262 263 261
292 292 291 294 294 290 290 292 291 289 290 290 289 288 289 289 289 291 289 287 287 286 284 282 281 281 282 282 282 281 279 279 278 275 272 270 269 269 266 265 262 261 260
289 288 288 290 291 291 290 290 288 287 289 289 289 290 289 287 286 289 287 285 286 286 283 281 281 280 281 281 281 282 279 278 276 274 272 269 268 267 265 264 262 260 259
288 288 288 289 291 291 290 289 286 285 288 289 289 289 288 287 285 287 286 285 285 284 282 280 280 281 281 281 280 279 278 276 274 273 271 268 267 266 264 264 262 259 258
286 287 287 287 289 289 289 287 288 288 290 291 291 290 290 288 285 285 284 283 283 283 284 283 280 280 280 280 279 279 277 275 273 272 271 269 268 266 265 264 262 259 258
285 284 284 285 285 287 288 287 288 290 291 291 291 290 290 289 287 285 283 283 283 283 284 286 282 280 281 281 280 279 279 277 274 272 272 270 268 266 266 264 262 259 258
284 283 286 287 286 286 288 288 289 291 291 291 291 290 291 290 288 286 283 283 283 283 284 283 284 283 282 280 279 278 277 277 274 273 271 269 268 267 266 265 263 259 258
288 287 285 286 286 288 291 290 291 293 294 295 294 293 291 290 287 285 281 283 282 282 283 284 283 283 282 281 278 276 275 274 274 277 272 269 267 268 267 265 263 260 256
291 292 288 287 288 290 292 293 295 294 294 297 298 296 293 292 292 290 286 284 284 284 284 283 283 282 280 280 278 275 273 272 274 276 273 270 270 268 266 264 262 261 256
295 294 290 289 287 289 291 293 296 295 293 294 294 295 295 295 294 294 291 289 288 290 290 288 287 283 280 279 280 277 274 274 275 275 273 270 268 268 266 264 262 260 258
302 298 294 294 292 292 293 294 296 297 295 294 292 294 295 298 298 296 293 291 290 290 291 291 291 286 281 279 279 278 276 276 276 275 271 269 267 266 266 266 262 261 258
302 300 297 296 295 296 297 297 296 296 296 296 295 295 295 297 299 298 294 291 290 291 292 293 293 289 283 280 279 278 276 275 275 275 271 268 266 265 265 264 263 260 258
303 299 297 298 300 297 297 299 298 298 296 298 296 296 297 297 297 297 296 294 292 291 293 294 293 290 285 282 280 278 276 275 274 274 271 269 267 265 263 262 262 261 260
305 301 301 300 299 298 298 298 298 298 298 297 298 297 297 297 297 297 296 295 294 293 293 293 292 290 288 284 280 278 277 277 275 274 271 268 267 265 262 260 261 263 261
307 305 306 304 300 299 299 299 299 298 297 296 296 297 296 295 296 295 295 295 295 295 294 293 292 290 287 283 282 280 278 276 276 275 273 270 268 265 262 260 260 262 261
312 311 309 306 303 302 301 302 303 300 298 297 296 296 298 298 297 296 296 296 297 298 297 294 293 292 288 284 283 281 279 278 276 274 272 269 268 266 263 261 261 261 261
312 312 310 309 307 305 304 303 303 302 299 298 297 299 300 300 299 300 297 296 295 296 297 295 295 295 291 287 285 282 280 280 280 278 274 270 267 266 265 263 262 261 262
312 311 309 308 308 306 306 305 304 302 301 300 300 301 301 301 301 300 296 296 296 297 298 298 299 297 292 289 287 284 282 280 282 280 275 271 267 266 265 264 264 263 264
Height
5896 5895 5895 5895 5895 5895 5895 5895 5894 5894 5893 5893 5892 5891 5891 5890 5889 5888 5888 5887 5886 5885 5884 5884 5883 5882 5881 5881 5881 5880 5879 5878 5878 5877 5877 5876 5876 5876 5876 5876 5876 5876 5876
5895 5895 5895 5895 5894 5894 5894 5893 5893 5893 5892 5891 5891 5890 5889 5888 5888 5887 5886 5885 5884 5883 5882 5882 5881 5880 5879 5879 5878 5877 5877 5876 5875 5875 5874 5874 5873 5873 5873 5873 5873 5873 5874
5894 5894 5894 5893 5893 5893 5892 5892 5892 5891 5890 5890 5889 5888 5888 5887 5886 5885 5884 5883 5882 5881 5880 5879 5878 5878 5877 5876 5876 5875 5874 5873 5872 5872 5871 5871 5870 5870 5870 5870 5870 5870 5871
5893 5893 5893 5892 5892 5891 5891 5891 5890 5889 5889 5888 5888 5887 5886 5885 5884 5883 5882 5880 5879 5878 5878 5877 5876 5875 5874 5873 5873 5872 5871 5870 5869 5869 5868 5867 5867 5867 5867 5867 5867 5867 5867
5891 5891 5891 5891 5890 5890 5889 5889 5888 5888 5887 5886 5886 5885 5884 5883 5882 5880 5879 5878 5877 5876 5875 5874 5873 5872 5871 5870 5869 5868 5868 5867 5866 5865 5865 5864 5864 5863 5864 5863 5863 5863 5864
5890 5890 5890 5889 5889 5888 5888 5887 5886 5886 5885 5884 5884 5883 5882 5880 5879 5878 5876 5875 5874 5873 5872 5871 5870 5869 5868 5867 5866 5865 5864 5863 5863 5862 5861 5861 5860 5860 5859 5859 5859 5860 5860
5888 5888 5888 5887 5887 5886 5885 5884 5884 5883 5883 5882 5881 5880 5879 5878 5876 5875 5873 5872 5871 5870 5869 5868 5867 5866 5864 5863 5862 5861 5860 5860 5859 5858 5858 5857 5856 5856 5855 5855 5855 5855 5856
5886 5886 5885 5885 5884 5883 5882 5882 5881 5880 5880 5879 5878 5877 5876 5874 5873 5872 5870 5869 5868 5866 5865 5864 5863 5862 5861 5859 5858 5857 5856 5855 5854 5854 5853 5853 5852 5852 5851 5851 5851 5851 5851
5884 5884 5883 5882 5881 5880 5879 5878 5877 5877 5876 5875 5874 5873 5872 5871 5869 5868 5866 5865 5864 5862 5861 5860 5859 5858 5856 5855 5854 5853 5851 5850 5850 5849 5848 5848 5848 5847 5847 5847 5846 5846 5846
5881 5881 5880 5879 5878 5877 5877 5875 5874 5873 5872 5872 5870 5869 5868 5867 5865 5864 5862 5861 5859 5858 5857 5855 5854 5853 5852 5850 5849 5848 5847 5846 5844 5844 5843 5843 5842 5842 5842 5841 5841 5841 5841
5878 5877 5876 5876 5875 5874 5873 5872 5871 5870 5868 5867 5866 5865 5864 5862 5861 5859 5858 5856 5855 5854 5852 5851 5849 5848 5847 5845 5844 5843 5841 5840 5839 5838 5837 5837 5837 5836 5836 5836 5836 5836 5836
5874 5874 5873 5872 5872 5871 5869 5868 5867 5865 5864 5863 5862 5860 5859 5857 5856 5854 5853 5851 5850 5848 5847 5846 5844 5843 5841 5840 5838 5837 5836 5835 5833 5832 5831 5831 5830 5830 5830 5830 5830 5830 5830
5871 5870 5869 5868 5867 5866 5865 5864 5862 5861 5860 5859 5857 5855 5853 5852 5850 5849 5847 5846 5845 5843 5842 5840 5839 5837 5836 5834 5832 5831 5829 5828 5827 5826 5825 5824 5824 5824 5823 5824 5824 5824 5824
5867 5866 5865 5864 5863 5861 5860 5859 5858 5857 5856 5854 5852 5850 5848 5846 5844 5843 5841 5840 5839 5837 5836 5834 5833 5831 5830 5828 5826 5825 5823 5822 5821 5820 5819 5818 5818 5818 5818 5818 5818 5818 5818
5863 5863 5861 5860 5858 5856 5855 5855 5853 5852 5850 5849 5847 5845 5842 5840 5839 5837 5836 5834 5833 5831 5830 5828 5827 5825 5824 5822 5820 5818 5817 5816 5814 5813 5812 5812 5811 5811 5811 5811 5811 5811 5812
5859 5858 5856 5854 5853 5851 5850 5849 5848 5846 5845 5843 5841 5839 5837 5835 5833 5831 5830 5828 5827 5825 5823 5821 5819 5818 5816 5815 5813 5812 5810 5809 5808 5807 5806 5805 5804 5804 5804 5804 5804 5804 5805
5855 5853 5851 5850 5849 5847 5845 5844 5843 5841 5840 5838 5836 5833 5832 5829 5827 5825 5823 5821 5820 5818 5816 5814 5812 5810 5809 5807 5806 5805 5803 5802 5801 5800 5798 5797 5797 5797 5797 5797 5797 5797 5797
5850 5848 5846 5845 5844 5842 5841 5839 5837 5836 5834 5833 5831 5828 5826 5823 5821 5819 5817 5815 5813 5811 5809 5807 5805 5803 5801 5800 5798 5797 5796 5794 5794 5793 5791 5790 5790 5790 5790 5790 5790 5790 5790
5844 5842 5841 5839 5838 5837 5836 5834 5832 5830 5829 5827 5824 5822 5820 5818 5815 5813 5811 5809 5807 5805 5802 5800 5797 5795 5794 5792 5791 5789 5788 5787 5786 5785 5784 5784 5783 5783 5783 5782 5782 5783 5783
5839 5837 5836 5834 5833 5832 5831 5829 5827 5825 5822 5820 5818 5816 5814 5812 5809 5807 5804 5802 5800 5798 5795 5793 5790 5788 5786 5784 5783 5782 5781 5780 5778 5777 5777 5776 5776 5775 5775 5775 5775 5776 5776
5835 5833 5831 5829 5828 5827 5825 5823 5821 5818 5816 5814 5812 5810 5808 5806 5803 5800 5798 5796 5794 5791 5788 5785 5783 5780 5779 5777 5775 5774 5773 5772 5771 5770 5769 5768 5768 5768 5768 5768 5768 5768 5769
5830 5828 5826 5824 5822 5821 5819 5817 5814 5812 5810 5808 5806 5804 5802 5799 5797 5794 5791 5789 5787 5784 5781 5778 5775 5773 5771 5769 5767 5766 5766 5765 5763 5762 5761 5760 5760 5760 5760 5760 5761 5761 5761
5825 5823 5821 5818 5816 5814 5812 5810 5807 5805 5803 5802 5800 5797 5795 5793 5790 5787 5784 5782 5779 5776 5773 5770 5767 5765 5763 5761 5759 5758 5758 5758 5756 5755 5753 5753 5752 5752 5753 5753 5753 5754 5754
5820 5818 5815 5812 5810 5808 5806 5803 5801 5799 5797 5795 5793 5790 5788 5785 5782 5780 5777 5774 5772 5769 5766 5763 5760 5758 5755 5754 5752 5750 5749 5749 5748 5748 5747 5745 5745 5745 5745 5746 5746 5746 5747
5815 5813 5810 5807 5805 5802 5800 5797 5795 5792 5790 5788 5785 5783 5780 5778 5775 5772 5770 5767 5765 5762 5759 5756 5753 5751 5748 5747 5745 5743 5742 5740 5739 5738 5739 5738 5737 5737 5737 5738 5738 5739 5739
5810 5807 5805 5802 5800 5797 5794 5791 5788 5786 5783 5781 5778 5775 5773 5771 5768 5765 5763 5760 5758 5755 5752 5750 5747 5744 5742 5740 5738 5736 5735 5733 5731 5730 5729 5729 5729 5730 5729 5730 5730 5730 5730